Location: Bruch
(44.2051°N, 0.4120°E)
Time: 05:43:29
(UTC+00:00)

Gbstr 26 Del rocket - Pass Details

Date: 29 November 2020
Orbit: 493 x 1263 km, 51.8° (Epoch: 27 January)

Event Time Altitude Azimuth Distance (km) Brightness Sun altitude
Exits shadow 04:43:11 40° 67° (ENE) 745 3.8 -26.0°
Drops below altitude 10° 04:46:03 10° 101° (E) 1,738 6.4 -25.5°
Sets 04:48:23 0° 107° (ESE) 2,683 7.7 -25.1°
